Location: Albany
(35.0170°S, 117.8920°E)
Time: 21:42:04
(UTC+08:00)

A-11 Canister half - Pass Details

Date: 26 January 2021
Orbit: 1525 x 1684 km, 47.3° (Epoch: 03 March)

Event Time Altitude Azimuth Distance (km) Brightness Sun altitude
Rises 02:58:26 0° 288° (WNW) 4,938 - -24.5°
Reaches altitude 10° 03:01:42 10° 284° (WNW) 3,949 - -24.1°
Exits shadow 03:05:06 24° 276° (W) 2,982 10.1 -23.6°
Maximum altitude 03:11:42 59° 205° (SSW) 1,888 9.5 -22.7°
Drops below altitude 10° 03:21:31 10° 126° (SE) 3,874 12.3 -21.2°
Sets 03:24:43 0° 122° (ESE) 4,839 13.1 -20.8°
